Flippin, AR

3:58 AM CST on February 21, 2017 (GMT -0600)
Marion County Regional

Weather History for KFLP - January, 2014

Change the Weather History Date:

Monday, January 6, 2014

  Actual Average Record
Temperature  
Mean Temperature 6 °F -  
Max Temperature 12 °F 45 °F 73 °F (2008)
Min Temperature 1 °F 26 °F 1 °F (2014)
Degree Days  
Heating Degree Days 58    
Moisture  
Dew Point -10 °F    
Average Humidity 48    
Maximum Humidity 66    
Minimum Humidity 37    
Precipitation  
Precipitation 0.00 in - - ()
Sea Level Pressure  
Sea Level Pressure 30.50 in    
Wind  
Wind Speed 11 mph (WNW)    
Max Wind Speed 18 mph    
Max Gust Speed 26 mph    
Visibility 10 miles    
Events      
Averages and records for this station are not official NWS values.
T = Trace of Precipitation, MM = Missing Value Source: NWS Daily Summary

Daily Weather History Graph

Daily Weather History Graph

Search for Another Location

Airport or City:

Trip Planner

Search our weather history database for the weather conditions in past years. The results will help you decide how hot, cold, wet, or windy it might be!

Date:

Astronomy

Jan. 06, 2014 Rise Set
Actual Time 7:22 AM CST 5:10 PM CST
Civil Twilight 6:53 AM CST 5:38 PM CST
Nautical Twilight 6:21 AM CST 6:10 PM CST
Astronomical Twilight 5:50 AM CST 6:42 PM CST
Moon 10:49 AM CST (1/6) 11:32 PM CST (1/6)
Length of Visible Light 10h 45m
Length of Day
9h 48m
Waxing Crescent, 35% of the Moon is Illuminated
Jan 6
Waxing Crescent
Jan 7
First Quarter
Jan 15
Full
Jan 23
Last Quarter
Jan 30
New

Hourly Weather History & Observations

Time (CST) Temp. Windchill Dew Point Humidity Pressure Visibility Wind Dir Wind Speed Gust Speed Precip Events Conditions
12:15 AM 8.6 °F -6.3 °F -7.6 °F 48% 30.41 in 10.0 mi WNW 11.5 mph 19.6 mph N/A   Clear
12:35 AM 8.6 °F -3.7 °F -7.6 °F 48% 30.42 in 10.0 mi NW 8.1 mph 21.9 mph N/A   Clear
12:55 AM 8.6 °F -5.5 °F -7.6 °F 48% 30.42 in 10.0 mi WNW 10.4 mph 18.4 mph N/A   Clear
1:15 AM 8.6 °F -6.3 °F -7.6 °F 48% 30.41 in 10.0 mi NW 11.5 mph 17.3 mph N/A   Clear
1:35 AM 8.6 °F -10.0 °F -7.6 °F 48% 30.42 in 10.0 mi NW 18.4 mph 24.2 mph N/A   Clear
1:55 AM 8.6 °F -4.7 °F -9.4 °F 44% 30.44 in 10.0 mi NW 9.2 mph 19.6 mph N/A   Clear
2:15 AM 8.6 °F -7.0 °F -7.6 °F 48% 30.45 in 10.0 mi WNW 12.7 mph 18.4 mph N/A   Clear
2:35 AM 6.8 °F -7.8 °F -9.4 °F 48% 30.44 in 10.0 mi WNW 10.4 mph - N/A   Clear
2:55 AM 6.8 °F -7.8 °F -7.6 °F 52% 30.45 in 10.0 mi WNW 10.4 mph - N/A   Clear
3:15 AM 6.8 °F -9.3 °F -9.4 °F 48% 30.45 in 10.0 mi NW 12.7 mph 16.1 mph N/A   Clear
3:35 AM 6.8 °F -10.7 °F -9.4 °F 48% 30.45 in 10.0 mi NW 15.0 mph 24.2 mph N/A   Clear
3:55 AM 6.8 °F -11.3 °F -9.4 °F 48% 30.45 in 10.0 mi NW 16.1 mph 20.7 mph N/A   Clear
4:15 AM 6.8 °F -8.6 °F -9.4 °F 48% 30.45 in 10.0 mi NW 11.5 mph - N/A   Clear
4:35 AM 6.8 °F -8.6 °F -9.4 °F 48% 30.45 in 10.0 mi WNW 11.5 mph - N/A   Clear
4:55 AM 6.8 °F -8.6 °F -9.4 °F 48% 30.45 in 10.0 mi WNW 11.5 mph 16.1 mph N/A   Clear
5:15 AM 6.8 °F -7.8 °F -9.4 °F 48% 30.46 in 10.0 mi WNW 10.4 mph - N/A   Clear
5:35 AM 5.0 °F -11.6 °F -9.4 °F 52% 30.46 in 10.0 mi WNW 12.7 mph 18.4 mph N/A   Clear
5:55 AM 5.0 °F -12.3 °F -9.4 °F 52% 30.47 in 10.0 mi WNW 13.8 mph 19.6 mph N/A   Clear
6:15 AM 3.2 °F -13.9 °F -9.4 °F 56% 30.47 in 10.0 mi WNW 12.7 mph 20.7 mph N/A   Clear
6:35 AM 3.2 °F -13.1 °F -9.4 °F 56% 30.49 in 10.0 mi NW 11.5 mph 18.4 mph N/A   Clear
6:55 AM 3.2 °F -17.1 °F -9.4 °F 56% 30.50 in 10.0 mi NW 18.4 mph 25.3 mph N/A   Clear
7:15 AM 1.4 °F -15.3 °F -14.8 °F 47% 30.51 in 10.0 mi NW 11.5 mph 23.0 mph N/A   Clear
7:35 AM 1.4 °F -16.9 °F -14.8 °F 47% 30.52 in 10.0 mi NW 13.8 mph 21.9 mph N/A   Clear
7:55 AM 1.4 °F -17.6 °F -14.8 °F 47% 30.53 in 10.0 mi NW 15.0 mph 20.7 mph N/A   Clear
8:15 AM 1.4 °F -16.9 °F -14.8 °F 47% 30.54 in 10.0 mi NW 13.8 mph - N/A   Clear
8:35 AM 1.4 °F -16.1 °F -13.0 °F 51% 30.55 in 10.0 mi NW 12.7 mph 25.3 mph N/A   Clear
8:55 AM 1.4 °F -18.8 °F -14.8 °F 47% 30.56 in 10.0 mi NW 17.3 mph 21.9 mph N/A   Clear
9:15 AM 1.4 °F -17.6 °F -13.0 °F 51% 30.57 in 10.0 mi NW 15.0 mph 21.9 mph N/A   Clear
9:35 AM 1.4 °F -15.3 °F -13.0 °F 51% 30.58 in 10.0 mi NW 11.5 mph 20.7 mph N/A   Clear
9:55 AM 3.2 °F -17.1 °F -13.0 °F 47% 30.58 in 10.0 mi WNW 18.4 mph 24.2 mph N/A   Clear
10:15 AM 3.2 °F -10.3 °F -14.8 °F 43% 30.58 in 10.0 mi NW 8.1 mph 20.7 mph N/A   Clear
10:35 AM 3.2 °F -16.5 °F -14.8 °F 43% 30.58 in 10.0 mi WNW 17.3 mph 24.2 mph N/A   Clear
10:55 AM 3.2 °F -15.9 °F -14.8 °F 43% 30.57 in 10.0 mi WNW 16.1 mph 21.9 mph N/A   Clear
11:15 AM 5.0 °F -14.7 °F -14.8 °F 40% 30.56 in 10.0 mi WNW 18.4 mph 25.3 mph N/A   Clear
11:35 AM 5.0 °F -12.3 °F -14.8 °F 40% 30.55 in 10.0 mi NW 13.8 mph 20.7 mph N/A   Clear
11:55 AM 6.8 °F -10.7 °F -11.2 °F 44% 30.54 in 10.0 mi WNW 15.0 mph 26.5 mph N/A   Clear
12:15 PM 6.8 °F -9.3 °F -13.0 °F 40% 30.51 in 10.0 mi West 12.7 mph 23.0 mph N/A   Clear
12:35 PM 8.6 °F -8.9 °F -11.2 °F 40% 30.52 in 10.0 mi WNW 16.1 mph 24.2 mph N/A   Clear
12:55 PM 6.8 °F -8.6 °F -11.2 °F 44% 30.50 in 10.0 mi WNW 11.5 mph 21.9 mph N/A   Clear
1:15 PM 8.6 °F -7.7 °F -9.4 °F 44% 30.50 in 10.0 mi WNW 13.8 mph 24.2 mph N/A   Clear
1:35 PM 8.6 °F -8.3 °F -11.2 °F 40% 30.49 in 10.0 mi West 15.0 mph 18.4 mph N/A   Clear
1:55 PM 8.6 °F -8.3 °F -9.4 °F 44% 30.50 in 10.0 mi WNW 15.0 mph 19.6 mph N/A   Clear
2:15 PM 10.4 °F -7.2 °F -9.4 °F 41% 30.50 in 10.0 mi West 17.3 mph 23.0 mph N/A   Clear
2:35 PM 10.4 °F -5.4 °F -9.4 °F 41% 30.50 in 10.0 mi West 13.8 mph 21.9 mph N/A   Clear
2:55 PM 10.4 °F -6.0 °F -9.4 °F 41% 30.49 in 10.0 mi West 15.0 mph - N/A   Clear
3:15 PM 10.4 °F -6.0 °F -9.4 °F 41% 30.49 in 10.0 mi WNW 15.0 mph 20.7 mph N/A   Clear
3:35 PM 12.2 °F -3.1 °F -9.4 °F 38% 30.48 in 10.0 mi West 13.8 mph 21.9 mph N/A   Clear
3:55 PM 12.2 °F -3.7 °F -9.4 °F 38% 30.48 in 10.0 mi West 15.0 mph - N/A   Clear
4:15 PM 12.2 °F -3.7 °F -9.4 °F 38% 30.48 in 10.0 mi West 15.0 mph 19.6 mph N/A   Clear
4:35 PM 12.2 °F -3.1 °F -9.4 °F 38% 30.48 in 10.0 mi West 13.8 mph 19.6 mph N/A   Clear
4:55 PM 10.4 °F -0.4 °F -11.2 °F 37% 30.48 in 10.0 mi West 6.9 mph 16.1 mph N/A   Clear
5:15 PM 10.4 °F -4.1 °F -9.4 °F 41% 30.48 in 10.0 mi West 11.5 mph - N/A   Clear
5:35 PM 10.4 °F -0.4 °F -9.4 °F 41% 30.49 in 10.0 mi WNW 6.9 mph 19.6 mph N/A   Clear
5:55 PM 8.6 °F -4.7 °F -9.4 °F 44% 30.50 in 10.0 mi NW 9.2 mph - N/A   Clear
6:15 PM 8.6 °F -2.6 °F -9.4 °F 44% 30.50 in 10.0 mi NW 6.9 mph - N/A   Clear
6:35 PM 8.6 °F -4.7 °F -9.4 °F 44% 30.50 in 10.0 mi NW 9.2 mph - N/A   Clear
6:55 PM 6.8 °F -3.5 °F -9.4 °F 48% 30.51 in 10.0 mi NW 5.8 mph - N/A   Clear
7:15 PM 6.8 °F -2.0 °F -9.4 °F 48% 30.51 in 10.0 mi NNW 4.6 mph - N/A   Clear
7:35 PM 6.8 °F -2.0 °F -9.4 °F 48% 30.52 in 10.0 mi NW 4.6 mph - N/A   Clear
7:55 PM 6.8 °F -0.1 °F -9.4 °F 48% 30.52 in 10.0 mi West 3.5 mph - N/A   Clear
8:15 PM 6.8 °F - -9.4 °F 48% 30.53 in 10.0 mi Calm Calm - N/A   Clear
8:35 PM 5.0 °F - -9.4 °F 52% 30.53 in 10.0 mi Calm Calm - N/A   Clear
8:55 PM 3.2 °F - -9.4 °F 56% 30.53 in 10.0 mi Calm Calm - N/A   Clear
9:15 PM 3.2 °F - -7.6 °F 61% 30.54 in 10.0 mi Calm Calm - N/A   Clear
9:35 PM 1.4 °F - -9.4 °F 61% 30.54 in 10.0 mi Calm Calm - N/A   Clear
9:55 PM 1.4 °F - -7.6 °F 66% 30.54 in 10.0 mi Calm Calm - N/A   Clear
10:15 PM 1.4 °F - -7.6 °F 66% 30.54 in 10.0 mi Calm Calm - N/A   Clear
10:35 PM 1.4 °F - -7.6 °F 66% 30.53 in 10.0 mi Calm Calm - N/A   Clear
10:55 PM 1.4 °F - -7.6 °F 66% 30.52 in 10.0 mi Calm Calm - N/A   Clear
11:15 PM 1.4 °F - -9.4 °F 61% 30.52 in 10.0 mi Calm Calm - N/A   Clear
11:35 PM 3.2 °F - -9.4 °F 56% 30.51 in 10.0 mi Calm Calm - N/A   Clear
11:55 PM 3.2 °F - -7.6 °F 61% 30.51 in 10.0 mi Calm Calm - N/A   Clear